| time (UTC) | temp F | wind direction | speed MPH | gust MPH | rain 1hr in | rain 24hr in | rain mn in | humidity % | barometer mb |
| 20260505073536 | 49 | 15 | 1.0 | 2.0 | 0.00 | 0.00 | 0.00 | 47 | |
| 20260505072524 | 50 | 6 | 2.0 | 4.0 | 0.00 | 0.00 | 0.00 | 47 | |
| 20260505071550 | 50 | 9 | 1.0 | 3.0 | 0.00 | 0.00 | 0.00 | 46 | |
| 20260505070535 | 50 | 348 | 1.0 | 3.0 | 0.00 | 0.00 | 0.00 | 47 | |
| 20260505065524 | 50 | 359 | 2.0 | 4.0 | 0.00 | 0.00 | 0.00 | 46 | |
| 20260505064550 | 51 | 338 | 1.0 | 4.0 | 0.00 | 0.00 | 0.00 | 46 | |
| 20260505063537 | 51 | 352 | 1.0 | 3.0 | 0.00 | 0.00 | 0.00 | 45 | |
| 20260505062543 | 51 | 349 | 3.0 | 6.0 | 0.00 | 0.00 | 0.00 | 45 | |
| 20260505061551 | 51 | 28 | 3.0 | 5.0 | 0.00 | 0.00 | 0.00 | 46 | |
| 20260505060535 | 51 | 15 | 2.0 | 3.0 | 0.00 | 0.00 | 0.00 | 48 | |
| 20260505055524 | 51 | 25 | 1.0 | 4.0 | 0.00 | 0.00 | 0.00 | 47 | |
| 20260505054529 | 51 | 4 | 3.0 | 5.0 | 0.00 | 0.00 | 0.00 | 48 | |
| 20260505053535 | 51 | 29 | 2.0 | 3.0 | 0.00 | 0.00 | 0.00 | 50 | |
| 20260505052524 | 51 | 335 | 2.0 | 6.0 | 0.00 | 0.00 | 0.00 | 51 | |
| 20260505051529 | 52 | 2 | 3.0 | 6.0 | 0.00 | 0.00 | 0.00 | 51 | |
| 20260505050555 | 53 | 28 | 3.0 | 7.0 | 0.00 | 0.00 | 0.00 | 44 | |
| 20260505041528 | 53 | 360 | 4.0 | 8.0 | 0.00 | 0.00 | 0.00 | 46 | |
| 20260505040535 | 53 | 311 | 4.0 | 9.0 | 0.00 | 0.00 | 0.00 | 47 | |
| 20260505035523 | 53 | 335 | 5.0 | 8.0 | 0.00 | 0.00 | 0.00 | 48 | |
| 20260505034529 | 53 | 349 | 5.0 | 7.0 | 0.00 | 0.00 | 0.00 | 51 | |
| 20260505033534 | 54 | 10 | 6.0 | 11.0 | 0.00 | 0.00 | 0.00 | 52 | |
| 20260505032542 | 56 | 12 | 7.0 | 12.0 | 0.00 | 0.00 | 0.00 | 46 | |
| 20260505031529 | 57 | 340 | 6.0 | 12.0 | 0.00 | 0.00 | 0.00 | 43 | |
| 20260505030534 | 57 | 16 | 4.0 | 7.0 | 0.00 | 0.00 | 0.00 | 43 | |
| 20260505025540 | 57 | 297 | 4.0 | 6.0 | 0.00 | 0.00 | 0.00 | 43 | |
| 20260505024528 | 57 | 325 | 4.0 | 9.0 | 0.00 | 0.00 | 0.00 | 43 | |
| 20260505023534 | 57 | 274 | 3.0 | 6.0 | 0.00 | 0.00 | 0.00 | 43 | |
| 20260505022522 | 57 | 19 | 4.0 | 6.0 | 0.00 | 0.00 | 0.00 | 43 | |
| 20260505021528 | 57 | 34 | 4.0 | 6.0 | 0.00 | 0.00 | 0.00 | 44 | |
| 20260505020534 | 57 | 26 | 4.0 | 6.0 | 0.00 | 0.00 | 0.00 | 47 | |
| 20260505015522 | 58 | 264 | 2.0 | 4.0 | 0.00 | 0.00 | 0.00 | 45 | |
| 20260505014527 | 59 | 298 | 3.0 | 5.0 | 0.00 | 0.00 | 0.00 | 41 | |
| 20260505013534 | 60 | 303 | 4.0 | 7.0 | 0.00 | 0.00 | 0.00 | 39 | |
| 20260505012522 | 60 | 338 | 3.0 | 5.0 | 0.00 | 0.00 | 0.00 | 37 | |
| 20260505011528 | 61 | 9 | 5.0 | 8.0 | 0.00 | 0.00 | 0.00 | 37 | |
| 20260505010534 | 61 | 352 | 5.0 | 9.0 | 0.00 | 0.00 | 0.00 | 38 | |
| 20260505005522 | 62 | 272 | 6.0 | 11.0 | 0.00 | 0.00 | 0.00 | 37 | |
| 20260505004527 | 64 | 13 | 5.0 | 7.0 | 0.00 | 0.00 | 0.00 | 34 | |
| 20260505003533 | 65 | 11 | 4.0 | 7.0 | 0.00 | 0.00 | 0.00 | 33 | |
| 20260505002522 | 66 | 347 | 3.0 | 7.0 | 0.00 | 0.00 | 0.00 | 31 | |
| 20260505001527 | 67 | 4 | 4.0 | 8.0 | 0.00 | 0.00 | 0.00 | 30 | |
| 20260505000654 | 70 | 316 | 5.0 | 10.0 | 0.00 | 0.00 | 0.00 | 28 | |
| 20260504235521 | 72 | 34 | 5.0 | 9.0 | 0.00 | 0.00 | 0.00 | 26 | |
| 20260504234527 | 73 | 295 | 5.0 | 7.0 | 0.00 | 0.00 | 0.00 | 26 | |
| 20260504233534 | 74 | 332 | 6.0 | 12.0 | 0.00 | 0.00 | 0.00 | 26 | |
| 20260504232521 | 75 | 281 | 5.0 | 9.0 | 0.00 | 0.00 | 0.00 | 26 | |
| 20260504231527 | 75 | 341 | 5.0 | 12.0 | 0.00 | 0.00 | 0.00 | 27 | |
| 20260504230534 | 76 | 302 | 6.0 | 11.0 | 0.00 | 0.00 | 0.00 | 26 | |
| 20260504225521 | 76 | 357 | 6.0 | 12.0 | 0.00 | 0.00 | 0.00 | 26 | |
| 20260504224528 | 77 | 36 | 5.0 | 7.0 | 0.00 | 0.00 | 0.00 | 26 | |
| 20260504223613 | 78 | 16 | 3.0 | 5.0 | 0.00 | 0.00 | 0.00 | 27 | |
| 20260504222522 | 78 | 335 | 3.0 | 7.0 | 0.00 | 0.00 | 0.00 | 26 | |
| 20260504221527 | 78 | 358 | 5.0 | 11.0 | 0.00 | 0.00 | 0.00 | 26 | |
| 20260504220532 | 79 | 358 | 4.0 | 5.0 | 0.00 | 0.00 | 0.00 | 26 | |
| 20260504215520 | 79 | 304 | 5.0 | 9.0 | 0.00 | 0.00 | 0.00 | 26 | |
| 20260504214606 | 80 | 18 | 4.0 | 8.0 | 0.00 | 0.00 | 0.00 | 26 | |
| 20260504213532 | 80 | 323 | 5.0 | 10.0 | 0.00 | 0.00 | 0.00 | 26 | |
| 20260504212520 | 81 | 332 | 5.0 | 6.0 | 0.00 | 0.00 | 0.00 | 25 | |
| 20260504211544 | 82 | 347 | 4.0 | 7.0 | 0.00 | 0.00 | 0.00 | 26 | |
| 20260504210532 | 82 | 311 | 5.0 | 9.0 | 0.00 | 0.00 | 0.00 | 26 | |
| 20260504205519 | 82 | 2 | 4.0 | 9.0 | 0.00 | 0.00 | 0.00 | 27 | |
| 20260504204526 | 82 | 298 | 5.0 | 9.0 | 0.00 | 0.00 | 0.00 | 28 | |
| 20260504203612 | 84 | 298 | 4.0 | 6.0 | 0.00 | 0.00 | 0.00 | 30 | |
| 20260504202540 | 84 | 325 | 4.0 | 7.0 | 0.00 | 0.00 | 0.00 | 29 | |
| 20260504201525 | 84 | 318 | 5.0 | 9.0 | 0.00 | 0.00 | 0.00 | 30 | |
| 20260504200531 | 84 | 239 | 4.0 | 8.0 | 0.00 | 0.00 | 0.00 | 31 | |
| 20260504195519 | 83 | 276 | 4.0 | 7.0 | 0.00 | 0.00 | 0.00 | 30 | |
| 20260504194525 | 83 | 212 | 4.0 | 7.0 | 0.00 | 0.00 | 0.00 | 30 | |
| 20260504193531 | 86 | 260 | 6.0 | 9.0 | 0.00 | 0.00 | 0.00 | 27 | |
| 20260504192536 | 86 | 278 | 5.0 | 10.0 | 0.00 | 0.00 | 0.00 | 27 | |
| 20260504191524 | 82 | 282 | 4.0 | 6.0 | 0.00 | 0.00 | 0.00 | 28 | |
| 20260504190530 | 83 | 328 | 4.0 | 6.0 | 0.00 | 0.00 | 0.00 | 27 | |
| 20260504185536 | 85 | 299 | 5.0 | 7.0 | 0.00 | 0.00 | 0.00 | 26 | |
| 20260504184524 | 85 | 211 | 5.0 | 7.0 | 0.00 | 0.00 | 0.00 | 26 | |
| 20260504183530 | 85 | 266 | 6.0 | 10.0 | 0.00 | 0.00 | 0.00 | 27 | |
| 20260504182536 | 85 | 258 | 5.0 | 9.0 | 0.00 | 0.00 | 0.00 | 26 | |
| 20260504181524 | 85 | 269 | 5.0 | 8.0 | 0.00 | 0.00 | 0.00 | 28 | |
| 20260504180530 | 84 | 243 | 6.0 | 10.0 | 0.00 | 0.00 | 0.00 | 28 | |
| 20260504175536 | 84 | 273 | 5.0 | 8.0 | 0.00 | 0.00 | 0.00 | 28 | |
| 20260504174523 | 83 | 263 | 6.0 | 10.0 | 0.00 | 0.00 | 0.00 | 29 | |
| 20260504173529 | 83 | 228 | 6.0 | 10.0 | 0.00 | 0.00 | 0.00 | 27 | |
| 20260504172536 | 83 | 296 | 7.0 | 12.0 | 0.00 | 0.00 | 0.00 | 27 | |
| 20260504171523 | 83 | 307 | 6.0 | 8.0 | 0.00 | 0.00 | 0.00 | 28 | |
| 20260504170529 | 82 | 258 | 7.0 | 13.0 | 0.00 | 0.00 | 0.00 | 28 | |
| 20260504150546 | 74 | 212 | 4.0 | 5.0 | 0.00 | 0.00 | 0.00 | 39 | |
| 20260504140527 | 66 | 184 | 4.0 | 7.0 | 0.00 | 0.00 | 0.00 | 46 | |
| 20260504130548 | 55 | 180 | 1.0 | 2.0 | 0.00 | 0.00 | 0.00 | 66 | |
| 20260504110527 | 44 | 0.0 | 0.0 | 0.00 | 0.00 | 0.00 | 81 | ||
| 20260504100527 | 45 | 0.0 | 0.0 | 0.00 | 0.00 | 0.00 | 77 | ||
| 20260504081521 | 50 | 0.0 | 0.0 | 0.00 | 0.00 | 0.00 | 62 | ||
| 20260504080528 | 50 | 0.0 | 0.0 | 0.00 | 0.00 | 0.00 | 61 |